Quincy, IL

8:20 PM CDT on May 25, 2017 (GMT -0500)
Quincy Regional-Baldwin

Weather History for KUIN - June, 2013

Change the Weather History Date:

Thursday, June 13, 2013

  Actual Average Record
Temperature  
Mean Temperature 75 °F 72 °F  
Max Temperature 84 °F 81 °F 99 °F (1921)
Min Temperature 65 °F 62 °F 46 °F (1985)
Degree Days  
Heating Degree Days 0 0  
Month to date heating degree days 12 14  
Since 1 June heating degree days 12 14  
Since 1 July heating degree days 5638 5580  
Cooling Degree Days 10 7  
Month to date cooling degree days 54 74  
Year to date cooling degree days 166 160  
Since 1 June cooling degree days 54 74  
Growing Degree Days 25 (Base 50)    
Moisture  
Dew Point 58 °F    
Average Humidity 58    
Maximum Humidity 81    
Minimum Humidity 34    
Precipitation  
Precipitation T in 0.14 in 3.01 in (2011)
Month to date precipitation 0.32 1.83  
Year to date precipitation 25.56 15.92  
Sea Level Pressure  
Sea Level Pressure 29.92 in    
Wind  
Wind Speed 10 mph (NNW)    
Max Wind Speed 30 mph    
Max Gust Speed 38 mph    
Visibility 9 miles    
Events Rain    
T = Trace of Precipitation, MM = Missing Value Source: NWS Daily Summary

Daily Weather History Graph

Daily Weather History Graph

Search for Another Location

Airport or City:

Trip Planner

Search our weather history database for the weather conditions in past years. The results will help you decide how hot, cold, wet, or windy it might be!

Date:

Astronomy

Jun. 13, 2013 Rise Set
Actual Time 5:35 AM CDT 8:34 PM CDT
Civil Twilight 5:02 AM CDT 9:07 PM CDT
Nautical Twilight 4:21 AM CDT 9:48 PM CDT
Astronomical Twilight 3:33 AM CDT 10:37 PM CDT
Moon 10:12 AM CDT (6/13) 11:41 PM CDT (6/13)
Length of Visible Light 16h 04m
Length of Day
14h 58m
Waxing Crescent, 22% of the Moon is Illuminated
Jun 13
Waxing Crescent
Jun 16
First Quarter
Jun 23
Full
Jun 29
Last Quarter
Jul 8
New

Hourly Weather History & Observations

Time (CDT) Temp. Heat Index Dew Point Humidity Pressure Visibility Wind Dir Wind Speed Gust Speed Precip Events Conditions
12:54 AM 73.9 °F - 57.9 °F 57% 29.76 in 10.0 mi WNW 20.7 mph 29.9 mph N/A   Clear
1:54 AM 70.0 °F - 57.9 °F 65% 29.78 in 10.0 mi WNW 27.6 mph 38.0 mph N/A   Clear
2:32 AM 69.8 °F - 59.0 °F 68% 29.81 in 10.0 mi NW 20.7 mph 28.8 mph N/A   Mostly Cloudy
2:54 AM 68.0 °F - 59.0 °F 73% 29.79 in 10.0 mi WNW 18.4 mph - N/A   Mostly Cloudy
3:54 AM 66.9 °F - 61.0 °F 81% 29.80 in 10.0 mi WNW 16.1 mph - N/A   Overcast
4:23 AM 66.2 °F - 62.6 °F 88% 29.84 in 8.0 mi WNW 17.3 mph - 0.00 in   Overcast
4:51 AM 66.2 °F - 62.6 °F 88% 29.85 in 5.0 mi NW 15.0 mph - 0.00 in Rain Light Rain
4:54 AM 66.0 °F - 63.0 °F 90% 29.83 in 5.0 mi WNW 15.0 mph - 0.00 in Rain Light Rain
5:52 AM 66.2 °F - 64.4 °F 94% 29.88 in 6.0 mi NW 12.7 mph - 0.00 in   Overcast
5:54 AM 66.9 °F - 64.0 °F 90% 29.86 in 5.0 mi NW 12.7 mph - 0.00 in Rain Light Rain
6:04 AM 66.2 °F - 64.4 °F 94% 29.88 in 8.0 mi NNW 11.5 mph - 0.00 in   Overcast
6:54 AM 68.0 °F - 64.9 °F 90% 29.89 in 10.0 mi NNW 12.7 mph - 0.00 in   Overcast
7:54 AM 68.0 °F - 62.1 °F 81% 29.93 in 10.0 mi NNW 15.0 mph - N/A   Overcast
8:54 AM 69.1 °F - 62.1 °F 78% 29.95 in 10.0 mi NNW 10.4 mph - N/A   Mostly Cloudy
9:54 AM 73.9 °F - 60.1 °F 62% 29.97 in 10.0 mi North 16.1 mph - N/A   Scattered Clouds
10:54 AM 75.9 °F - 57.0 °F 52% 29.97 in 10.0 mi North 12.7 mph 20.7 mph N/A   Clear
11:54 AM 78.1 °F - 55.9 °F 46% 29.99 in 10.0 mi NNE 16.1 mph 20.7 mph N/A   Clear
12:54 PM 80.1 °F 80.0 °F 54.0 °F 40% 29.99 in 10.0 mi North 12.7 mph 18.4 mph N/A   Clear
1:54 PM 82.0 °F 81.4 °F 55.0 °F 39% 30.00 in 10.0 mi NNE 11.5 mph - N/A   Clear
2:54 PM 82.9 °F 81.8 °F 53.1 °F 36% 29.99 in 10.0 mi North 4.6 mph - N/A   Clear
3:54 PM 84.0 °F 82.6 °F 54.0 °F 35% 29.98 in 10.0 mi NNW 9.2 mph - N/A   Partly Cloudy
4:54 PM 82.9 °F - 52.0 °F 34% 29.97 in 10.0 mi Variable 4.6 mph - N/A   Clear
5:54 PM 81.0 °F - 52.0 °F 36% 30.00 in 10.0 mi NNW 11.5 mph - N/A   Clear
6:54 PM 81.0 °F 80.5 °F 54.0 °F 39% 30.00 in 10.0 mi NNW 6.9 mph - N/A   Clear
7:54 PM 78.1 °F - 55.9 °F 46% 30.00 in 10.0 mi NW 4.6 mph - N/A   Clear
8:54 PM 75.9 °F - 55.9 °F 50% 29.99 in 10.0 mi Calm Calm - N/A   Clear
9:54 PM 77.0 °F - 55.9 °F 48% 29.96 in 10.0 mi Calm Calm - N/A   Clear
10:54 PM 72.0 °F - 57.0 °F 59% 29.95 in 10.0 mi East 5.8 mph - N/A   Clear
11:54 PM 68.0 °F - 57.9 °F 70% 29.96 in 10.0 mi ENE 3.5 mph - N/A   Clear